Location: Bégole
(43.1574°N, 0.3291°E)
Time: 03:29:05
(UTC+00:00)

Feng Yun 1-1 Rocket - Pass Details

Date: 28 January 2023
Orbit: 830 x 933 km, 99.1° (Epoch: 27 March)

Event Time Altitude Azimuth Distance (km) Brightness Sun altitude
Rises 18:45:09 0° 149° (SSE) 3,492 7.2 -18.3°
Reaches altitude 10° 18:47:37 10° 144° (SE) 2,541 6.4 -18.7°
Maximum altitude 18:53:04 52° 70° (ENE) 1,072 4.3 -19.7°
Drops below altitude 10° 18:58:24 10° 355° (N) 2,492 6.6 -20.7°
Sets 19:00:48 0° 351° (N) 3,420 7.4 -21.1°
